Time,TemperatureF,DewpointF,PressureIn,WindDirection,WindDirectionDegrees,WindSpeedMPH,WindSpeedGustMPH,Humidity,HourlyPrecipIn,Conditions,Clouds,dailyrainin,SolarRadiationWatts/m^2,SoftwareType,DateUTC
2013-01-25 00:04:00,14.6,10.4,30.51,ESE,112,7.0,8.0,83,0.00,,,0.00,0,Wunderground v.1.15,2013-01-25 06:04:00,
2013-01-25 00:10:00,14.7,10.5,30.50,ESE,115,8.0,8.0,83,0.00,,,0.00,0,Wunderground v.1.15,2013-01-25 06:10:00,
2013-01-25 00:15:00,14.8,10.6,30.50,ESE,113,6.0,8.0,83,0.00,,,0.00,0,Wunderground v.1.15,2013-01-25 06:15:00,
2013-01-25 00:20:00,14.9,10.4,30.50,ESE,118,8.0,8.0,82,0.00,,,0.00,0,Wunderground v.1.15,2013-01-25 06:20:00,
2013-01-25 00:25:00,15.1,10.6,30.49,SE,124,11.0,11.0,82,0.00,,,0.00,0,Wunderground v.1.15,2013-01-25 06:25:00,
2013-01-25 00:30:00,15.3,10.2,30.49,ESE,117,6.0,7.0,80,0.00,,,0.00,0,Wunderground v.1.15,2013-01-25 06:30:00,
2013-01-25 00:35:00,15.5,10.4,30.48,SE,132,5.0,9.0,80,0.00,,,0.00,0,Wunderground v.1.15,2013-01-25 06:35:00,
2013-01-25 00:40:00,15.7,10.3,30.49,SE,134,8.0,8.0,79,0.00,,,0.00,0,Wunderground v.1.15,2013-01-25 06:40:00,
2013-01-25 00:45:00,15.8,10.2,30.49,SE,143,7.0,8.0,78,0.00,,,0.00,0,Wunderground v.1.15,2013-01-25 06:45:00,
2013-01-25 00:50:00,15.9,10.0,30.49,SSE,151,9.0,9.0,77,0.00,,,0.00,0,Wunderground v.1.15,2013-01-25 06:50:00,
2013-01-25 00:55:00,16.0,10.1,30.49,SSE,152,7.0,9.0,77,0.00,,,0.00,0,Wunderground v.1.15,2013-01-25 06:55:00,
2013-01-25 01:00:00,16.1,9.9,30.49,SE,144,8.0,8.0,76,0.00,,,0.00,0,Wunderground v.1.15,2013-01-25 07:00:00,
2013-01-25 01:06:00,16.2,9.7,30.49,SE,136,7.0,8.0,75,0.00,,,0.00,0,Wunderground v.1.15,2013-01-25 07:06:00,
2013-01-25 01:11:00,16.3,9.8,30.49,SE,138,5.0,6.0,75,0.00,,,0.00,0,Wunderground v.1.15,2013-01-25 07:11:00,
2013-01-25 01:16:00,16.4,9.6,30.48,SSE,153,8.0,8.0,74,0.00,,,0.00,0,Wunderground v.1.15,2013-01-25 07:16:00,
2013-01-25 01:21:00,16.4,9.6,30.48,SSE,148,8.0,8.0,74,0.00,,,0.00,0,Wunderground v.1.15,2013-01-25 07:21:00,
2013-01-25 01:26:00,16.6,9.4,30.47,SSE,150,7.0,10.0,73,0.00,,,0.00,0,Wunderground v.1.15,2013-01-25 07:26:00,
2013-01-25 01:32:00,16.6,9.4,30.47,SSE,147,5.0,8.0,73,0.00,,,0.00,0,Wunderground v.1.15,2013-01-25 07:32:00,
2013-01-25 01:38:00,16.6,9.4,30.47,SE,146,7.0,9.0,73,0.00,,,0.00,0,Wunderground v.1.15,2013-01-25 07:38:00,
2013-01-25 01:43:00,16.7,9.5,30.46,SSE,156,9.0,9.0,73,0.00,,,0.00,0,Wunderground v.1.15,2013-01-25 07:43:00,
2013-01-25 01:48:00,16.7,9.5,30.46,SSE,156,8.0,9.0,73,0.00,,,0.00,0,Wunderground v.1.15,2013-01-25 07:48:00,
2013-01-25 01:53:00,16.8,9.3,30.45,SSE,157,10.0,10.0,72,0.00,,,0.00,0,Wunderground v.1.15,2013-01-25 07:53:00,
2013-01-25 01:58:00,16.9,9.4,30.44,SE,142,7.0,10.0,72,0.00,,,0.00,0,Wunderground v.1.15,2013-01-25 07:58:00,
2013-01-25 02:03:00,17.0,9.2,30.44,SSE,156,11.0,12.0,71,0.00,,,0.00,0,Wunderground v.1.15,2013-01-25 08:03:00,
2013-01-25 02:08:00,17.1,9.0,30.43,SSE,149,5.0,14.0,70,0.00,,,0.00,0,Wunderground v.1.15,2013-01-25 08:08:00,
2013-01-25 02:13:00,17.2,8.8,30.43,SE,144,9.0,13.0,69,0.00,,,0.00,0,Wunderground v.1.15,2013-01-25 08:13:00,
2013-01-25 02:18:00,17.3,8.9,30.42,SE,144,8.0,13.0,69,0.00,,,0.00,0,Wunderground v.1.15,2013-01-25 08:18:00,
2013-01-25 02:23:00,17.3,8.9,30.41,SE,144,8.0,12.0,69,0.00,,,0.00,0,Wunderground v.1.15,2013-01-25 08:23:00,
2013-01-25 02:28:00,17.5,8.4,30.41,SE,139,8.0,14.0,67,0.00,,,0.00,0,Wunderground v.1.15,2013-01-25 08:28:00,
2013-01-25 02:33:00,17.5,8.4,30.40,SE,132,9.0,13.0,67,0.00,,,0.00,0,Wunderground v.1.15,2013-01-25 08:33:00,
2013-01-25 02:38:00,17.5,8.4,30.40,SE,143,8.0,14.0,67,0.00,,,0.00,0,Wunderground v.1.15,2013-01-25 08:38:00,
2013-01-25 02:43:00,17.6,8.2,30.40,SE,140,8.0,14.0,66,0.00,,,0.00,0,Wunderground v.1.15,2013-01-25 08:43:00,
2013-01-25 02:48:00,17.6,8.2,30.40,SSE,150,8.0,14.0,66,0.00,,,0.00,0,Wunderground v.1.15,2013-01-25 08:48:00,
2013-01-25 02:53:00,17.7,8.3,30.39,SE,142,5.0,14.0,66,0.00,,,0.00,0,Wunderground v.1.15,2013-01-25 08:53:00,
2013-01-25 02:58:00,17.7,7.9,30.38,SE,140,7.0,15.0,65,0.00,,,0.00,0,Wunderground v.1.15,2013-01-25 08:58:00,
2013-01-25 03:03:00,17.8,8.0,30.38,SSE,163,11.0,12.0,65,0.00,,,0.00,0,Wunderground v.1.15,2013-01-25 09:03:00,
2013-01-25 03:08:00,17.8,8.0,30.38,SSE,150,8.0,14.0,65,0.00,,,0.00,0,Wunderground v.1.15,2013-01-25 09:08:00,
2013-01-25 03:13:00,17.8,7.7,30.37,SE,136,15.0,15.0,64,0.00,,,0.00,0,Wunderground v.1.15,2013-01-25 09:13:00,
2013-01-25 03:18:00,17.8,8.0,30.37,SE,139,9.0,15.0,65,0.00,,,0.00,0,Wunderground v.1.15,2013-01-25 09:18:00,
2013-01-25 03:23:00,17.7,7.9,30.36,SSE,162,13.0,15.0,65,0.00,,,0.00,0,Wunderground v.1.15,2013-01-25 09:23:00,
2013-01-25 03:28:00,17.7,7.9,30.36,ESE,120,14.0,17.0,65,0.00,,,0.00,0,Wunderground v.1.15,2013-01-25 09:28:00,
2013-01-25 03:33:00,17.7,8.3,30.35,SSE,148,18.0,20.0,66,0.00,,,0.00,0,Wunderground v.1.15,2013-01-25 09:33:00,
2013-01-25 03:38:00,17.5,9.4,30.35,SSE,148,11.0,23.0,70,0.00,,,0.00,0,Wunderground v.1.15,2013-01-25 09:38:00,
2013-01-25 03:43:00,17.2,10.0,30.35,South,169,8.0,14.0,73,0.00,,,0.00,0,Wunderground v.1.15,2013-01-25 09:43:00,
2013-01-25 03:48:00,16.9,10.3,30.35,SSE,161,7.0,16.0,75,0.00,,,0.00,0,Wunderground v.1.15,2013-01-25 09:48:00,
2013-01-25 03:53:00,16.6,10.9,30.35,SSE,155,8.0,13.0,78,0.00,,,0.00,0,Wunderground v.1.15,2013-01-25 09:53:00,
2013-01-25 03:58:00,16.4,11.3,30.35,SE,135,11.0,16.0,80,0.00,,,0.00,0,Wunderground v.1.15,2013-01-25 09:58:00,
2013-01-25 04:03:00,16.3,11.5,30.34,SE,132,11.0,15.0,81,0.00,,,0.00,0,Wunderground v.1.15,2013-01-25 10:03:00,
2013-01-25 04:08:00,16.2,11.9,30.33,SSE,148,9.0,15.0,83,0.00,,,0.00,0,Wunderground v.1.15,2013-01-25 10:08:00,
2013-01-25 04:13:00,16.1,11.8,30.33,SE,143,12.0,15.0,83,0.00,,,0.00,0,Wunderground v.1.15,2013-01-25 10:13:00,
2013-01-25 04:18:00,16.0,12.0,30.33,SE,146,8.0,16.0,84,0.00,,,0.00,0,Wunderground v.1.15,2013-01-25 10:18:00,
2013-01-25 04:23:00,16.0,12.3,30.33,SSE,157,12.0,12.0,85,0.00,,,0.00,0,Wunderground v.1.15,2013-01-25 10:23:00,
2013-01-25 04:28:00,15.9,12.5,30.33,SSE,149,5.0,12.0,86,0.00,,,0.00,0,Wunderground v.1.15,2013-01-25 10:28:00,
2013-01-25 04:33:00,15.8,12.4,30.32,ESE,122,15.0,15.0,86,0.00,,,0.00,0,Wunderground v.1.15,2013-01-25 10:33:00,
2013-01-25 04:38:00,15.8,12.6,30.32,SE,142,10.0,16.0,87,0.00,,,0.00,0,Wunderground v.1.15,2013-01-25 10:38:00,
2013-01-25 04:43:00,15.8,12.6,30.32,SSE,148,9.0,15.0,87,0.00,,,0.00,0,Wunderground v.1.15,2013-01-25 10:43:00,
2013-01-25 04:48:00,15.7,12.8,30.31,SSE,161,5.0,15.0,88,0.00,,,0.00,0,Wunderground v.1.15,2013-01-25 10:48:00,
2013-01-25 04:53:00,15.8,12.9,30.31,SSE,147,4.0,10.0,88,0.00,,,0.00,0,Wunderground v.1.15,2013-01-25 10:53:00,
2013-01-25 04:58:00,15.7,12.8,30.31,SE,146,11.0,14.0,88,0.00,,,0.00,0,Wunderground v.1.15,2013-01-25 10:58:00,
2013-01-25 05:03:00,15.7,12.8,30.30,SE,136,15.0,17.0,88,0.00,,,0.00,0,Wunderground v.1.15,2013-01-25 11:03:00,
2013-01-25 05:08:00,15.7,12.8,30.30,SSE,154,11.0,17.0,88,0.00,,,0.00,0,Wunderground v.1.15,2013-01-25 11:08:00,
2013-01-25 05:13:00,15.8,12.9,30.30,SE,143,13.0,17.0,88,0.00,,,0.00,0,Wunderground v.1.15,2013-01-25 11:13:00,
2013-01-25 05:18:00,15.8,12.9,30.29,SSE,164,8.0,17.0,88,0.00,,,0.00,0,Wunderground v.1.15,2013-01-25 11:18:00,
2013-01-25 05:23:00,15.8,12.9,30.29,SSE,155,11.0,14.0,88,0.00,,,0.00,0,Wunderground v.1.15,2013-01-25 11:23:00,
2013-01-25 05:28:00,15.8,12.9,30.28,SSE,147,8.0,18.0,88,0.00,,,0.00,0,Wunderground v.1.15,2013-01-25 11:28:00,
2013-01-25 05:33:00,15.8,12.9,30.28,SE,145,7.0,14.0,88,0.00,,,0.00,0,Wunderground v.1.15,2013-01-25 11:33:00,
2013-01-25 05:38:00,15.8,12.9,30.28,SSE,155,10.0,14.0,88,0.00,,,0.00,0,Wunderground v.1.15,2013-01-25 11:38:00,
2013-01-25 05:43:00,15.8,12.9,30.28,ESE,121,12.0,15.0,88,0.00,,,0.00,0,Wunderground v.1.15,2013-01-25 11:43:00,
2013-01-25 05:48:00,15.8,12.9,30.28,South,169,8.0,15.0,88,0.00,,,0.00,0,Wunderground v.1.15,2013-01-25 11:48:00,
2013-01-25 05:53:00,15.8,12.9,30.28,SSE,150,10.0,15.0,88,0.00,,,0.00,0,Wunderground v.1.15,2013-01-25 11:53:00,
2013-01-25 05:58:00,15.8,12.9,30.27,SSE,157,13.0,16.0,88,0.00,,,0.00,0,Wunderground v.1.15,2013-01-25 11:58:00,
2013-01-25 06:03:00,15.8,12.9,30.27,SSE,168,7.0,13.0,88,0.00,,,0.00,0,Wunderground v.1.15,2013-01-25 12:03:00,
2013-01-25 06:08:00,15.9,13.0,30.27,SSE,158,10.0,13.0,88,0.00,,,0.00,0,Wunderground v.1.15,2013-01-25 12:08:00,
2013-01-25 06:13:00,15.9,13.0,30.27,South,176,11.0,14.0,88,0.00,,,0.00,0,Wunderground v.1.15,2013-01-25 12:13:00,
2013-01-25 06:18:00,15.9,13.0,30.27,SSE,161,9.0,14.0,88,0.00,,,0.00,0,Wunderground v.1.15,2013-01-25 12:18:00,
2013-01-25 06:23:00,15.9,13.0,30.26,SSE,159,13.0,14.0,88,0.00,,,0.00,0,Wunderground v.1.15,2013-01-25 12:23:00,
2013-01-25 06:28:00,15.9,13.0,30.26,SSE,153,12.0,14.0,88,0.00,,,0.00,0,Wunderground v.1.15,2013-01-25 12:28:00,
2013-01-25 06:33:00,16.0,13.1,30.26,SSE,167,10.0,14.0,88,0.00,,,0.00,0,Wunderground v.1.15,2013-01-25 12:33:00,
2013-01-25 06:38:00,16.0,13.1,30.25,SSE,158,12.0,14.0,88,0.00,,,0.00,0,Wunderground v.1.15,2013-01-25 12:38:00,
2013-01-25 06:43:00,16.1,12.9,30.25,SSE,155,13.0,16.0,87,0.00,,,0.00,0,Wunderground v.1.15,2013-01-25 12:43:00,
2013-01-25 06:48:00,16.1,12.9,30.24,SSE,155,10.0,17.0,87,0.00,,,0.00,0,Wunderground v.1.15,2013-01-25 12:48:00,
2013-01-25 06:53:00,16.1,12.9,30.23,SSE,154,13.0,18.0,87,0.00,,,0.00,0,Wunderground v.1.15,2013-01-25 12:53:00,
2013-01-25 06:58:00,16.1,12.9,30.24,SSE,158,8.0,18.0,87,0.00,,,0.00,0,Wunderground v.1.15,2013-01-25 12:58:00,
2013-01-25 07:03:00,16.1,12.9,30.24,SSE,166,7.0,15.0,87,0.00,,,0.00,0,Wunderground v.1.15,2013-01-25 13:03:00,
2013-01-25 07:08:00,16.1,12.9,30.24,SSE,150,13.0,15.0,87,0.00,,,0.00,0,Wunderground v.1.15,2013-01-25 13:08:00,
2013-01-25 07:13:00,16.2,13.0,30.23,SSE,152,15.0,15.0,87,0.00,,,0.00,0,Wunderground v.1.15,2013-01-25 13:13:00,
2013-01-25 07:18:00,16.2,13.0,30.23,South,185,12.0,15.0,87,0.00,,,0.00,0,Wunderground v.1.15,2013-01-25 13:18:00,
2013-01-25 07:23:00,16.2,13.0,30.22,South,171,11.0,19.0,87,0.00,,,0.00,0,Wunderground v.1.15,2013-01-25 13:23:00,
2013-01-25 07:28:00,16.2,13.0,30.23,South,172,9.0,19.0,87,0.00,,,0.00,5,Wunderground v.1.15,2013-01-25 13:28:00,
2013-01-25 07:33:00,16.3,13.1,30.22,South,171,11.0,11.0,87,0.00,,,0.00,7,Wunderground v.1.15,2013-01-25 13:33:00,
2013-01-25 07:38:00,16.3,13.1,30.22,South,174,8.0,15.0,87,0.00,,,0.00,11,Wunderground v.1.15,2013-01-25 13:38:00,
2013-01-25 07:43:00,16.4,13.2,30.22,South,185,12.0,15.0,87,0.00,,,0.00,14,Wunderground v.1.15,2013-01-25 13:43:00,
2013-01-25 07:48:00,16.4,13.2,30.21,SSE,150,13.0,16.0,87,0.00,,,0.00,19,Wunderground v.1.15,2013-01-25 13:48:00,
2013-01-25 07:53:00,16.5,13.3,30.21,South,169,8.0,16.0,87,0.00,,,0.00,21,Wunderground v.1.15,2013-01-25 13:53:00,
2013-01-25 07:58:00,16.5,13.3,30.22,South,179,11.0,16.0,87,0.00,,,0.00,21,Wunderground v.1.15,2013-01-25 13:58:00,
2013-01-25 08:03:00,16.6,13.4,30.21,SSE,155,7.0,17.0,87,0.00,,,0.00,26,Wunderground v.1.15,2013-01-25 14:03:00,
2013-01-25 08:08:00,16.7,13.5,30.21,South,171,10.0,17.0,87,0.00,,,0.00,37,Wunderground v.1.15,2013-01-25 14:08:00,
2013-01-25 08:13:00,16.7,13.5,30.21,SSE,158,10.0,18.0,87,0.00,,,0.00,47,Wunderground v.1.15,2013-01-25 14:13:00,
2013-01-25 08:18:00,16.8,13.6,30.20,SSE,159,10.0,18.0,87,0.00,,,0.00,70,Wunderground v.1.15,2013-01-25 14:18:00,
2013-01-25 08:23:00,16.9,13.7,30.20,South,169,13.0,20.0,87,0.00,,,0.00,81,Wunderground v.1.15,2013-01-25 14:23:00,
2013-01-25 08:28:00,17.0,13.8,30.20,South,175,14.0,20.0,87,0.00,,,0.00,63,Wunderground v.1.15,2013-01-25 14:28:00,
2013-01-25 08:33:00,17.0,13.5,30.20,South,175,14.0,17.0,86,0.00,,,0.00,32,Wunderground v.1.15,2013-01-25 14:33:00,
2013-01-25 08:38:00,17.0,13.5,30.20,South,170,7.0,17.0,86,0.00,,,0.00,35,Wunderground v.1.15,2013-01-25 14:38:00,
2013-01-25 08:43:00,17.0,13.8,30.19,South,175,14.0,16.0,87,0.00,,,0.00,67,Wunderground v.1.15,2013-01-25 14:43:00,
2013-01-25 08:48:00,17.1,13.9,30.19,SSE,164,10.0,16.0,87,0.00,,,0.00,63,Wunderground v.1.15,2013-01-25 14:48:00,
2013-01-25 08:53:00,17.2,14.0,30.19,South,178,10.0,13.0,87,0.00,,,0.00,44,Wunderground v.1.15,2013-01-25 14:53:00,
2013-01-25 08:58:00,17.2,14.0,30.19,South,171,11.0,18.0,87,0.00,,,0.00,42,Wunderground v.1.15,2013-01-25 14:58:00,
2013-01-25 09:03:00,17.2,14.0,30.19,South,175,10.0,14.0,87,0.00,,,0.00,51,Wunderground v.1.15,2013-01-25 15:03:00,
2013-01-25 09:08:00,17.3,14.1,30.19,South,184,8.0,14.0,87,0.00,,,0.00,86,Wunderground v.1.15,2013-01-25 15:08:00,
2013-01-25 09:13:00,17.4,14.2,30.18,SSE,165,11.0,17.0,87,0.00,,,0.00,91,Wunderground v.1.15,2013-01-25 15:13:00,
2013-01-25 09:18:00,17.5,14.3,30.19,SSW,203,7.0,17.0,87,0.00,,,0.00,97,Wunderground v.1.15,2013-01-25 15:18:00,
2013-01-25 09:23:00,17.6,14.4,30.19,South,187,9.0,17.0,87,0.00,,,0.00,100,Wunderground v.1.15,2013-01-25 15:23:00,
2013-01-25 09:29:00,17.7,14.2,30.18,South,182,10.0,17.0,86,0.00,,,0.00,102,Wunderground v.1.15,2013-01-25 15:29:00,
2013-01-25 09:34:00,17.8,14.3,30.18,South,179,12.0,18.0,86,0.00,,,0.00,118,Wunderground v.1.15,2013-01-25 15:34:00,
2013-01-25 09:38:00,17.9,14.7,30.18,South,170,7.0,18.0,87,0.00,,,0.00,132,Wunderground v.1.15,2013-01-25 15:38:00,
2013-01-25 09:43:00,18.1,14.6,30.18,South,186,9.0,14.0,86,0.00,,,0.00,123,Wunderground v.1.15,2013-01-25 15:43:00,
2013-01-25 09:49:00,18.1,14.6,30.18,SSW,200,8.0,14.0,86,0.00,,,0.00,132,Wunderground v.1.15,2013-01-25 15:49:00,
2013-01-25 09:54:00,18.2,14.7,30.17,South,181,11.0,14.0,86,0.00,,,0.00,142,Wunderground v.1.15,2013-01-25 15:54:00,
2013-01-25 09:59:00,18.4,14.9,30.17,SSW,200,10.0,16.0,86,0.00,,,0.00,160,Wunderground v.1.15,2013-01-25 15:59:00,
2013-01-25 10:04:00,18.5,15.0,30.17,South,175,13.0,16.0,86,0.00,,,0.00,167,Wunderground v.1.15,2013-01-25 16:04:00,
2013-01-25 10:08:00,18.6,14.8,30.17,South,180,11.0,16.0,85,0.00,,,0.00,174,Wunderground v.1.15,2013-01-25 16:08:00,
2013-01-25 10:14:00,18.7,14.9,30.17,South,180,15.0,16.0,85,0.00,,,0.00,174,Wunderground v.1.15,2013-01-25 16:14:00,
2013-01-25 10:18:00,18.8,15.0,30.17,SSE,157,10.0,18.0,85,0.00,,,0.00,188,Wunderground v.1.15,2013-01-25 16:18:00,
2013-01-25 10:23:00,18.9,15.1,30.16,SSW,196,7.0,15.0,85,0.00,,,0.00,186,Wunderground v.1.15,2013-01-25 16:23:00,
2013-01-25 10:28:00,19.0,15.2,30.16,South,189,12.0,16.0,85,0.00,,,0.00,192,Wunderground v.1.15,2013-01-25 16:28:00,
2013-01-25 10:33:00,19.0,15.2,30.16,South,185,12.0,19.0,85,0.00,,,0.00,186,Wunderground v.1.15,2013-01-25 16:33:00,
2013-01-25 10:38:00,19.0,15.2,30.15,SSW,202,9.0,19.0,85,0.00,,,0.00,172,Wunderground v.1.15,2013-01-25 16:38:00,
2013-01-25 10:43:00,19.1,15.3,30.15,SSE,159,10.0,15.0,85,0.00,,,0.00,186,Wunderground v.1.15,2013-01-25 16:43:00,
2013-01-25 10:48:00,19.1,15.3,30.15,SSE,164,4.0,15.0,85,0.00,,,0.00,160,Wunderground v.1.15,2013-01-25 16:48:00,
2013-01-25 10:53:00,19.1,15.3,30.15,SW,219,9.0,16.0,85,0.00,,,0.00,190,Wunderground v.1.15,2013-01-25 16:53:00,
2013-01-25 10:58:00,19.3,15.5,30.14,South,184,7.0,16.0,85,0.00,,,0.00,174,Wunderground v.1.15,2013-01-25 16:58:00,
2013-01-25 11:03:00,19.4,15.4,30.14,SSW,212,8.0,14.0,84,0.00,,,0.00,179,Wunderground v.1.15,2013-01-25 17:03:00,
2013-01-25 11:08:00,19.5,15.5,30.14,South,186,6.0,14.0,84,0.00,,,0.00,186,Wunderground v.1.15,2013-01-25 17:08:00,
2013-01-25 11:13:00,19.6,15.6,30.14,South,182,5.0,13.0,84,0.00,,,0.00,178,Wunderground v.1.15,2013-01-25 17:13:00,
2013-01-25 11:18:00,19.7,15.6,30.14,SSW,205,5.0,14.0,84,0.00,,,0.00,186,Wunderground v.1.15,2013-01-25 17:18:00,
2013-01-25 11:23:00,19.8,15.5,30.13,South,185,5.0,14.0,83,0.00,,,0.00,207,Wunderground v.1.15,2013-01-25 17:23:00,
2013-01-25 11:28:00,20.0,15.7,30.12,SSW,194,8.0,14.0,83,0.00,,,0.00,197,Wunderground v.1.15,2013-01-25 17:28:00,
2013-01-25 11:33:00,20.1,15.5,30.12,South,182,10.0,14.0,82,0.00,,,0.00,172,Wunderground v.1.15,2013-01-25 17:33:00,
2013-01-25 11:38:00,20.0,15.4,30.12,SSW,204,6.0,14.0,82,0.00,,,0.00,153,Wunderground v.1.15,2013-01-25 17:38:00,
2013-01-25 11:43:00,20.1,15.5,30.11,SSW,205,10.0,14.0,82,0.00,,,0.00,146,Wunderground v.1.15,2013-01-25 17:43:00,
2013-01-25 11:48:00,20.0,15.4,30.11,SSW,197,7.0,17.0,82,0.00,,,0.00,155,Wunderground v.1.15,2013-01-25 17:48:00,
2013-01-25 11:53:00,20.0,15.7,30.11,SSW,210,9.0,11.0,83,0.00,,,0.00,172,Wunderground v.1.15,2013-01-25 17:53:00,
2013-01-25 11:58:00,20.2,15.9,30.11,SSW,193,10.0,14.0,83,0.00,,,0.00,176,Wunderground v.1.15,2013-01-25 17:58:00,
2013-01-25 12:03:00,20.2,15.9,30.10,South,180,12.0,13.0,83,0.00,,,0.00,160,Wunderground v.1.15,2013-01-25 18:03:00,
2013-01-25 12:08:00,20.3,16.0,30.10,South,188,5.0,14.0,83,0.00,,,0.00,174,Wunderground v.1.15,2013-01-25 18:08:00,
2013-01-25 12:13:00,20.4,16.1,30.09,South,184,5.0,12.0,83,0.00,,,0.00,163,Wunderground v.1.15,2013-01-25 18:13:00,
2013-01-25 12:18:00,20.6,16.0,30.09,SSW,196,10.0,14.0,82,0.00,,,0.00,148,Wunderground v.1.15,2013-01-25 18:18:00,
2013-01-25 12:23:00,20.6,16.0,30.08,SSE,166,8.0,14.0,82,0.00,,,0.00,155,Wunderground v.1.15,2013-01-25 18:23:00,
2013-01-25 12:28:00,20.6,16.0,30.08,SSW,204,13.0,15.0,82,0.00,,,0.00,167,Wunderground v.1.15,2013-01-25 18:28:00,
2013-01-25 12:33:00,20.7,15.8,30.08,SSW,209,8.0,17.0,81,0.00,,,0.00,163,Wunderground v.1.15,2013-01-25 18:33:00,
2013-01-25 12:38:00,20.7,15.8,30.08,SSW,201,8.0,17.0,81,0.00,,,0.00,160,Wunderground v.1.15,2013-01-25 18:38:00,
2013-01-25 12:43:00,20.8,15.6,30.08,South,184,7.0,16.0,80,0.00,,,0.00,167,Wunderground v.1.15,2013-01-25 18:43:00,
2013-01-25 12:48:00,20.9,16.0,30.08,South,175,10.0,16.0,81,0.00,,,0.00,178,Wunderground v.1.15,2013-01-25 18:48:00,
2013-01-25 12:53:00,21.1,16.2,30.08,SSW,202,8.0,11.0,81,0.00,,,0.00,169,Wunderground v.1.15,2013-01-25 18:53:00,
2013-01-25 12:58:00,21.1,16.2,30.07,South,188,10.0,12.0,81,0.00,,,0.00,178,Wunderground v.1.15,2013-01-25 18:58:00,
2013-01-25 13:03:00,21.2,16.3,30.08,SSW,200,7.0,10.0,81,0.00,,,0.00,178,Wunderground v.1.15,2013-01-25 19:03:00,
2013-01-25 13:08:00,21.3,16.7,30.07,SW,217,6.0,11.0,82,0.00,,,0.00,179,Wunderground v.1.15,2013-01-25 19:08:00,
2013-01-25 13:13:00,21.4,16.8,30.08,SW,217,7.0,11.0,82,0.00,,,0.00,171,Wunderground v.1.15,2013-01-25 19:13:00,
2013-01-25 13:18:00,21.5,16.6,30.08,SW,215,6.0,11.0,81,0.00,,,0.00,174,Wunderground v.1.15,2013-01-25 19:18:00,
2013-01-25 13:23:00,21.7,16.5,30.07,SW,223,8.0,13.0,80,0.00,,,0.00,176,Wunderground v.1.15,2013-01-25 19:23:00,
2013-01-25 13:28:00,21.8,16.6,30.07,SW,220,8.0,13.0,80,0.00,,,0.00,172,Wunderground v.1.15,2013-01-25 19:28:00,
2013-01-25 13:33:00,21.8,16.6,30.08,SW,218,14.0,14.0,80,0.00,,,0.00,171,Wunderground v.1.15,2013-01-25 19:33:00,
2013-01-25 13:38:00,21.7,16.5,30.08,SSW,209,9.0,14.0,80,0.00,,,0.00,171,Wunderground v.1.15,2013-01-25 19:38:00,
2013-01-25 13:43:00,21.7,16.8,30.08,SSW,198,10.0,12.0,81,0.00,,,0.00,167,Wunderground v.1.15,2013-01-25 19:43:00,
2013-01-25 13:48:00,21.8,16.6,30.08,SW,225,11.0,13.0,80,0.00,,,0.00,153,Wunderground v.1.15,2013-01-25 19:48:00,
2013-01-25 13:53:00,21.8,16.9,30.08,WSW,242,10.0,18.0,81,0.00,,,0.00,146,Wunderground v.1.15,2013-01-25 19:53:00,
2013-01-25 13:58:00,21.8,16.6,30.08,SW,235,6.0,19.0,80,0.00,,,0.00,144,Wunderground v.1.15,2013-01-25 19:58:00,
2013-01-25 14:03:00,21.8,16.6,30.08,SW,221,10.0,17.0,80,0.00,,,0.00,144,Wunderground v.1.15,2013-01-25 20:03:00,
2013-01-25 14:08:00,21.9,16.7,30.09,WSW,244,7.0,17.0,80,0.00,,,0.00,144,Wunderground v.1.15,2013-01-25 20:08:00,
2013-01-25 14:13:00,22.0,16.5,30.09,WSW,250,7.0,13.0,79,0.00,,,0.00,137,Wunderground v.1.15,2013-01-25 20:13:00,
2013-01-25 14:18:00,22.1,16.6,30.09,WSW,240,7.0,13.0,79,0.00,,,0.00,142,Wunderground v.1.15,2013-01-25 20:18:00,
2013-01-25 14:23:00,22.1,16.6,30.09,WSW,240,8.0,15.0,79,0.00,,,0.00,139,Wunderground v.1.15,2013-01-25 20:23:00,
2013-01-25 14:28:00,22.1,16.6,30.10,SW,234,11.0,15.0,79,0.00,,,0.00,146,Wunderground v.1.15,2013-01-25 20:28:00,
2013-01-25 14:33:00,22.2,16.4,30.10,WSW,242,8.0,20.0,78,0.00,,,0.00,148,Wunderground v.1.15,2013-01-25 20:33:00,
2013-01-25 14:38:00,22.2,16.4,30.10,WSW,237,10.0,20.0,78,0.00,,,0.00,142,Wunderground v.1.15,2013-01-25 20:38:00,
2013-01-25 14:43:00,22.2,16.7,30.10,SW,235,11.0,16.0,79,0.00,,,0.00,146,Wunderground v.1.15,2013-01-25 20:43:00,
2013-01-25 14:48:00,22.2,16.7,30.11,WSW,257,5.0,16.0,79,0.00,,,0.00,141,Wunderground v.1.15,2013-01-25 20:48:00,
2013-01-25 14:53:00,22.3,17.1,30.11,SW,231,12.0,12.0,80,0.00,,,0.00,121,Wunderground v.1.15,2013-01-25 20:53:00,
2013-01-25 14:58:00,22.1,16.9,30.11,WSW,241,5.0,18.0,80,0.00,,,0.00,105,Wunderground v.1.15,2013-01-25 20:58:00,
2013-01-25 15:03:00,22.0,17.1,30.11,West,275,2.0,11.0,81,0.00,,,0.00,97,Wunderground v.1.15,2013-01-25 21:03:00,
2013-01-25 15:08:00,22.0,17.1,30.11,West,277,0.0,16.0,81,0.00,,,0.00,116,Wunderground v.1.15,2013-01-25 21:08:00,
2013-01-25 15:13:00,22.0,17.1,30.11,West,279,1.0,11.0,81,0.00,,,0.00,111,Wunderground v.1.15,2013-01-25 21:13:00,
2013-01-25 15:18:00,22.1,17.2,30.11,West,262,3.0,11.0,81,0.00,,,0.00,95,Wunderground v.1.15,2013-01-25 21:18:00,
2013-01-25 15:23:00,22.1,16.9,30.11,West,279,7.0,11.0,80,0.00,,,0.00,95,Wunderground v.1.15,2013-01-25 21:23:00,
2013-01-25 15:28:00,22.0,16.5,30.12,WNW,286,8.0,13.0,79,0.00,,,0.00,91,Wunderground v.1.15,2013-01-25 21:28:00,
2013-01-25 15:33:00,22.0,16.5,30.12,WNW,290,11.0,14.0,79,0.00,,,0.00,86,Wunderground v.1.15,2013-01-25 21:33:00,
2013-01-25 15:38:00,21.9,16.1,30.12,West,281,1.0,14.0,78,0.00,,,0.00,79,Wunderground v.1.15,2013-01-25 21:38:00,
2013-01-25 15:43:00,21.8,16.0,30.12,WNW,292,4.0,14.0,78,0.00,,,0.00,53,Wunderground v.1.15,2013-01-25 21:43:00,
2013-01-25 15:48:00,21.7,15.9,30.12,WSW,249,11.0,14.0,78,0.00,,,0.00,44,Wunderground v.1.15,2013-01-25 21:48:00,
2013-01-25 15:53:00,21.5,16.0,30.13,WNW,288,6.0,19.0,79,0.00,,,0.00,40,Wunderground v.1.15,2013-01-25 21:53:00,
2013-01-25 15:58:00,21.1,16.2,30.13,WNW,287,6.0,19.0,81,0.00,,,0.00,46,Wunderground v.1.15,2013-01-25 21:58:00,
2013-01-25 16:03:00,20.9,16.0,30.13,West,277,6.0,14.0,81,0.00,,,0.00,49,Wunderground v.1.15,2013-01-25 22:03:00,
2013-01-25 16:08:00,20.9,15.4,30.13,West,273,5.0,14.0,79,0.00,,,0.00,44,Wunderground v.1.15,2013-01-25 22:08:00,
2013-01-25 16:13:00,21.0,15.2,30.14,WNW,288,1.0,11.0,78,0.00,,,0.00,40,Wunderground v.1.15,2013-01-25 22:13:00,
2013-01-25 16:18:00,21.1,15.3,30.14,WNW,291,2.0,12.0,78,0.00,,,0.00,32,Wunderground v.1.15,2013-01-25 22:18:00,
2013-01-25 16:23:00,21.1,15.3,30.15,NW,310,4.0,11.0,78,0.00,,,0.00,26,Wunderground v.1.15,2013-01-25 22:23:00,
2013-01-25 16:28:00,21.0,15.5,30.15,WNW,293,6.0,13.0,79,0.00,,,0.00,23,Wunderground v.1.15,2013-01-25 22:28:00,
2013-01-25 16:33:00,20.9,15.4,30.15,WNW,290,4.0,11.0,79,0.00,,,0.00,23,Wunderground v.1.15,2013-01-25 22:33:00,
2013-01-25 16:38:00,20.8,15.3,30.16,West,276,2.0,11.0,79,0.00,,,0.00,16,Wunderground v.1.15,2013-01-25 22:38:00,
2013-01-25 16:43:00,20.7,14.9,30.16,WNW,298,2.0,12.0,78,0.00,,,0.00,11,Wunderground v.1.15,2013-01-25 22:43:00,
2013-01-25 16:48:00,20.7,14.9,30.16,West,271,4.0,12.0,78,0.00,,,0.00,7,Wunderground v.1.15,2013-01-25 22:48:00,
2013-01-25 16:53:00,20.6,15.4,30.16,WNW,298,4.0,8.0,80,0.00,,,0.00,5,Wunderground v.1.15,2013-01-25 22:53:00,
2013-01-25 16:58:00,20.4,15.5,30.17,WNW,282,4.0,8.0,81,0.00,,,0.00,0,Wunderground v.1.15,2013-01-25 22:58:00,
2013-01-25 17:03:00,20.3,15.4,30.17,WNW,294,11.0,17.0,81,0.00,,,0.00,0,Wunderground v.1.15,2013-01-25 23:03:00,
2013-01-25 17:08:00,20.3,15.4,30.17,NW,323,7.0,17.0,81,0.00,,,0.00,0,Wunderground v.1.15,2013-01-25 23:08:00,
2013-01-25 17:13:00,20.3,15.4,30.17,WNW,290,1.0,11.0,81,0.00,,,0.00,0,Wunderground v.1.15,2013-01-25 23:13:00,
2013-01-25 17:18:00,20.2,15.3,30.17,NW,304,4.0,12.0,81,0.00,,,0.00,0,Wunderground v.1.15,2013-01-25 23:18:00,
2013-01-25 17:23:00,20.2,15.6,30.17,WNW,300,7.0,13.0,82,0.00,,,0.00,0,Wunderground v.1.15,2013-01-25 23:23:00,
2013-01-25 17:28:00,20.1,15.5,30.18,NW,312,6.0,13.0,82,0.00,,,0.00,0,Wunderground v.1.15,2013-01-25 23:28:00,
2013-01-25 17:33:00,20.1,15.8,30.18,NW,317,5.0,8.0,83,0.00,,,0.00,0,Wunderground v.1.15,2013-01-25 23:33:00,
2013-01-25 17:38:00,20.0,15.7,30.18,NW,313,2.0,13.0,83,0.00,,,0.00,0,Wunderground v.1.15,2013-01-25 23:38:00,
2013-01-25 17:43:00,19.9,15.8,30.18,WNW,301,4.0,12.0,84,0.00,,,0.00,0,Wunderground v.1.15,2013-01-25 23:43:00,
2013-01-25 17:48:00,19.8,15.7,30.18,WNW,301,0.0,12.0,84,0.00,,,0.00,0,Wunderground v.1.15,2013-01-25 23:48:00,
2013-01-25 17:53:00,19.7,15.6,30.18,WNW,294,2.0,11.0,84,0.00,,,0.00,0,Wunderground v.1.15,2013-01-25 23:53:00,
2013-01-25 17:58:00,19.6,15.6,30.18,WNW,292,2.0,11.0,84,0.00,,,0.00,0,Wunderground v.1.15,2013-01-25 23:58:00,
2013-01-25 18:03:00,19.6,15.6,30.18,WNW,290,0.0,12.0,84,0.00,,,0.00,0,Wunderground v.1.15,2013-01-26 00:03:00,
2013-01-25 18:08:00,19.6,15.6,30.19,WNW,300,5.0,12.0,84,0.00,,,0.00,0,Wunderground v.1.15,2013-01-26 00:08:00,
2013-01-25 18:13:00,19.7,15.4,30.19,WNW,297,7.0,11.0,83,0.00,,,0.00,0,Wunderground v.1.15,2013-01-26 00:13:00,
2013-01-25 18:18:00,19.7,15.4,30.19,WNW,287,5.0,11.0,83,0.00,,,0.00,0,Wunderground v.1.15,2013-01-26 00:18:00,
2013-01-25 18:23:00,19.7,15.1,30.20,WNW,296,0.0,14.0,82,0.00,,,0.00,0,Wunderground v.1.15,2013-01-26 00:23:00,
2013-01-25 18:28:00,19.7,15.1,30.20,WNW,288,1.0,14.0,82,0.00,,,0.00,0,Wunderground v.1.15,2013-01-26 00:28:00,
2013-01-25 18:33:00,19.6,15.0,30.20,WNW,287,7.0,9.0,82,0.00,,,0.00,0,Wunderground v.1.15,2013-01-26 00:33:00,
2013-01-25 18:38:00,19.6,15.0,30.20,WNW,285,5.0,9.0,82,0.00,,,0.00,0,Wunderground v.1.15,2013-01-26 00:38:00,
2013-01-25 18:43:00,19.5,14.9,30.21,WNW,284,2.0,8.0,82,0.00,,,0.00,0,Wunderground v.1.15,2013-01-26 00:43:00,
2013-01-25 18:48:00,19.5,14.9,30.21,WNW,293,7.0,14.0,82,0.00,,,0.00,0,Wunderground v.1.15,2013-01-26 00:48:00,
2013-01-25 18:53:00,19.5,14.9,30.21,West,261,10.0,13.0,82,0.00,,,0.00,0,Wunderground v.1.15,2013-01-26 00:53:00,
2013-01-25 18:58:00,19.5,14.9,30.22,WNW,287,1.0,13.0,82,0.00,,,0.00,0,Wunderground v.1.15,2013-01-26 00:58:00,
2013-01-25 19:03:00,19.5,14.6,30.22,WNW,294,6.0,11.0,81,0.00,,,0.00,0,Wunderground v.1.15,2013-01-26 01:03:00,
2013-01-25 19:08:00,19.5,14.6,30.22,WNW,289,8.0,13.0,81,0.00,,,0.00,0,Wunderground v.1.15,2013-01-26 01:08:00,
2013-01-25 19:14:00,19.6,14.4,30.22,WNW,302,5.0,15.0,80,0.00,,,0.00,0,Wunderground v.1.15,2013-01-26 01:14:00,
2013-01-25 19:19:00,19.5,14.0,30.22,West,273,4.0,15.0,79,0.00,,,0.00,0,Wunderground v.1.15,2013-01-26 01:19:00,
2013-01-25 19:24:00,19.5,14.0,30.22,NW,311,4.0,9.0,79,0.00,,,0.00,0,Wunderground v.1.15,2013-01-26 01:24:00,
2013-01-25 19:29:00,19.4,13.7,30.22,WNW,286,12.0,13.0,78,0.00,,,0.00,0,Wunderground v.1.15,2013-01-26 01:29:00,
2013-01-25 19:34:00,19.3,13.6,30.22,NW,312,6.0,13.0,78,0.00,,,0.00,0,Wunderground v.1.15,2013-01-26 01:34:00,
2013-01-25 19:39:00,19.1,13.1,30.23,WNW,284,5.0,16.0,77,0.00,,,0.00,0,Wunderground v.1.15,2013-01-26 01:39:00,
2013-01-25 19:44:00,18.9,12.9,30.22,West,273,9.0,11.0,77,0.00,,,0.00,0,Wunderground v.1.15,2013-01-26 01:44:00,
2013-01-25 19:49:00,18.7,12.7,30.22,WNW,301,6.0,11.0,77,0.00,,,0.00,0,Wunderground v.1.15,2013-01-26 01:49:00,
2013-01-25 19:54:00,18.4,12.4,30.23,WNW,286,6.0,9.0,77,0.00,,,0.00,0,Wunderground v.1.15,2013-01-26 01:54:00,
2013-01-25 19:59:00,18.2,12.2,30.23,WNW,303,1.0,9.0,77,0.00,,,0.00,0,Wunderground v.1.15,2013-01-26 01:59:00,
2013-01-25 20:04:00,18.0,12.0,30.23,WNW,288,1.0,11.0,77,0.00,,,0.00,0,Wunderground v.1.15,2013-01-26 02:04:00,
2013-01-25 20:09:00,17.7,11.7,30.24,WNW,294,6.0,12.0,77,0.00,,,0.00,0,Wunderground v.1.15,2013-01-26 02:09:00,
2013-01-25 20:14:00,17.5,11.5,30.24,West,276,4.0,9.0,77,0.00,,,0.00,0,Wunderground v.1.15,2013-01-26 02:14:00,
2013-01-25 20:19:00,17.3,11.3,30.24,NW,315,4.0,11.0,77,0.00,,,0.00,0,Wunderground v.1.15,2013-01-26 02:19:00,
2013-01-25 20:24:00,17.1,11.4,30.24,WNW,300,4.0,9.0,78,0.00,,,0.00,0,Wunderground v.1.15,2013-01-26 02:24:00,
2013-01-25 20:29:00,17.0,11.3,30.24,WNW,294,4.0,12.0,78,0.00,,,0.00,0,Wunderground v.1.15,2013-01-26 02:29:00,
2013-01-25 20:34:00,16.8,11.4,30.25,WNW,300,14.0,14.0,79,0.00,,,0.00,0,Wunderground v.1.15,2013-01-26 02:34:00,
2013-01-25 20:39:00,16.8,11.4,30.25,WNW,300,6.0,14.0,79,0.00,,,0.00,0,Wunderground v.1.15,2013-01-26 02:39:00,
2013-01-25 20:44:00,16.7,11.3,30.25,WNW,284,0.0,6.0,79,0.00,,,0.00,0,Wunderground v.1.15,2013-01-26 02:44:00,
2013-01-25 20:49:00,16.5,11.1,30.25,WNW,284,2.0,7.0,79,0.00,,,0.00,0,Wunderground v.1.15,2013-01-26 02:49:00,
2013-01-25 20:54:00,16.3,11.2,30.26,WNW,293,2.0,6.0,80,0.00,,,0.00,0,Wunderground v.1.15,2013-01-26 02:54:00,
2013-01-25 20:59:00,16.2,11.1,30.26,West,279,1.0,8.0,80,0.00,,,0.00,0,Wunderground v.1.15,2013-01-26 02:59:00,
2013-01-25 21:04:00,16.0,10.9,30.26,WNW,286,4.0,8.0,80,0.00,,,0.00,0,Wunderground v.1.15,2013-01-26 03:04:00,
2013-01-25 21:09:00,15.8,10.7,30.27,WNW,287,2.0,8.0,80,0.00,,,0.00,0,Wunderground v.1.15,2013-01-26 03:09:00,
2013-01-25 21:14:00,15.8,11.0,30.26,WNW,302,5.0,8.0,81,0.00,,,0.00,0,Wunderground v.1.15,2013-01-26 03:14:00,
2013-01-25 21:19:00,15.8,11.0,30.27,WNW,301,4.0,8.0,81,0.00,,,0.00,0,Wunderground v.1.15,2013-01-26 03:19:00,
2013-01-25 21:24:00,15.7,10.9,30.27,WNW,292,0.0,8.0,81,0.00,,,0.00,0,Wunderground v.1.15,2013-01-26 03:24:00,
2013-01-25 21:29:00,15.6,10.8,30.27,WNW,295,4.0,8.0,81,0.00,,,0.00,0,Wunderground v.1.15,2013-01-26 03:29:00,
2013-01-25 21:34:00,15.5,11.0,30.27,NW,307,4.0,8.0,82,0.00,,,0.00,0,Wunderground v.1.15,2013-01-26 03:34:00,
2013-01-25 21:39:00,15.4,10.9,30.27,WNW,293,2.0,8.0,82,0.00,,,0.00,0,Wunderground v.1.15,2013-01-26 03:39:00,
2013-01-25 21:44:00,15.3,10.8,30.28,WNW,298,4.0,8.0,82,0.00,,,0.00,0,Wunderground v.1.15,2013-01-26 03:44:00,
2013-01-25 21:49:00,15.2,10.7,30.28,WNW,300,0.0,8.0,82,0.00,,,0.00,0,Wunderground v.1.15,2013-01-26 03:49:00,
2013-01-25 21:54:00,15.2,11.0,30.28,West,281,1.0,9.0,83,0.00,,,0.00,0,Wunderground v.1.15,2013-01-26 03:54:00,
2013-01-25 21:59:00,15.0,10.8,30.29,WNW,287,4.0,9.0,83,0.00,,,0.00,0,Wunderground v.1.15,2013-01-26 03:59:00,
2013-01-25 22:04:00,14.9,10.7,30.29,WNW,287,1.0,5.0,83,0.00,,,0.00,0,Wunderground v.1.15,2013-01-26 04:04:00,
2013-01-25 22:09:00,14.6,10.1,30.29,WNW,287,2.0,6.0,82,0.00,,,0.00,0,Wunderground v.1.15,2013-01-26 04:09:00,
2013-01-25 22:14:00,14.1,9.9,30.29,WNW,287,0.0,5.0,83,0.00,,,0.00,0,Wunderground v.1.15,2013-01-26 04:14:00,
2013-01-25 22:19:00,13.7,9.5,30.29,WNW,287,1.0,5.0,83,0.00,,,0.00,0,Wunderground v.1.15,2013-01-26 04:19:00,
2013-01-25 22:24:00,13.5,9.6,30.29,WNW,282,2.0,7.0,84,0.00,,,0.00,0,Wunderground v.1.15,2013-01-26 04:24:00,
2013-01-25 22:29:00,13.6,9.9,30.30,West,267,3.0,7.0,85,0.00,,,0.00,0,Wunderground v.1.15,2013-01-26 04:29:00,
2013-01-25 22:34:00,13.9,10.2,30.30,WNW,301,5.0,9.0,85,0.00,,,0.00,0,Wunderground v.1.15,2013-01-26 04:34:00,
2013-01-25 22:39:00,14.1,10.4,30.31,NW,304,5.0,13.0,85,0.00,,,0.00,0,Wunderground v.1.15,2013-01-26 04:39:00,
2013-01-25 22:44:00,14.1,10.2,30.31,WNW,292,2.0,8.0,84,0.00,,,0.00,0,Wunderground v.1.15,2013-01-26 04:44:00,
2013-01-25 22:49:00,14.1,10.2,30.31,WNW,288,5.0,8.0,84,0.00,,,0.00,0,Wunderground v.1.15,2013-01-26 04:49:00,
2013-01-25 22:54:00,14.0,10.1,30.31,WNW,302,6.0,7.0,84,0.00,,,0.00,0,Wunderground v.1.15,2013-01-26 04:54:00,
2013-01-25 22:59:00,13.9,10.0,30.32,WNW,297,2.0,7.0,84,0.00,,,0.00,0,Wunderground v.1.15,2013-01-26 04:59:00,
2013-01-25 23:00:00,13.9,10.0,30.32,WNW,297,1.0,4.0,84,0.00,,,0.00,0,Wunderground v.1.15,2013-01-26 05:00:00,
2013-01-25 23:05:00,13.6,9.4,30.32,WNW,296,1.0,5.0,83,0.00,,,0.00,0,Wunderground v.1.15,2013-01-26 05:05:00,
2013-01-25 23:10:00,13.3,9.1,30.32,WNW,296,5.0,5.0,83,0.00,,,0.00,0,Wunderground v.1.15,2013-01-26 05:10:00,
2013-01-25 23:16:00,13.0,8.8,30.33,WNW,295,0.0,7.0,83,0.00,,,0.00,0,Wunderground v.1.15,2013-01-26 05:16:00,
2013-01-25 23:21:00,12.8,8.9,30.33,WNW,291,0.0,4.0,84,0.00,,,0.00,0,Wunderground v.1.15,2013-01-26 05:21:00,
2013-01-25 23:26:00,12.8,8.9,30.33,WNW,298,2.0,7.0,84,0.00,,,0.00,0,Wunderground v.1.15,2013-01-26 05:26:00,
2013-01-25 23:31:00,12.7,8.8,30.33,WNW,289,1.0,4.0,84,0.00,,,0.00,0,Wunderground v.1.15,2013-01-26 05:31:00,
2013-01-25 23:36:00,12.6,8.7,30.33,WNW,290,0.0,5.0,84,0.00,,,0.00,0,Wunderground v.1.15,2013-01-26 05:36:00,
2013-01-25 23:41:00,12.1,7.7,30.34,WNW,289,1.0,5.0,82,0.00,,,0.00,0,Wunderground v.1.15,2013-01-26 05:41:00,
2013-01-25 23:46:00,11.7,7.5,30.34,WNW,289,1.0,6.0,83,0.00,,,0.00,0,Wunderground v.1.15,2013-01-26 05:46:00,
2013-01-25 23:51:00,11.7,7.8,30.34,WNW,290,1.0,5.0,84,0.00,,,0.00,0,Wunderground v.1.15,2013-01-26 05:51:00,
2013-01-25 23:56:00,11.7,7.8,30.34,WNW,290,1.0,5.0,84,0.00,,,0.00,0,Wunderground v.1.15,2013-01-26 05:56:00,